Weather in Worthing

United Kingdom     50°49′01″N   0°21′00″E
temp.,
°C
wind,
m/s
gust,
m/s
humid.,
%
clouds,
%
prec.,
mm/h
press.,
hPa
HPBL,
m
29 november, mon
mon2900:00+3n811805 0.5 1010430
03:00+3n710855 0.0 1011387
06:00+3nnw710835 0.0 1013367
09:00+3nnw688294 0.0 1015349
12:00+5nw5575100 0.0 1016420
15:00+6wnw666842 0.0 1016553
18:00+7w79645 0.0 1016710
21:00+7w81079100 0.1 1017594
30 november, tue
tue3000:00+9wnw8118194 0.1 1016697
03:00+10w111586100 0.0 1015682
06:00+10wnw111687100 0.0 1015645
09:00+11w101489100 0.3 1015758
12:00+12w10138580 0.3 1014907
15:00+12w111382100 0.1 1012918
18:00+12wsw111487100 0.1 1010977
21:00+12wsw151987100 0.2 10071166
1 december, wed
wed100:00+12wsw172086100 0.6 10021242
03:00+12wsw141691100 5.1 997853
06:00+11wnw10128228 6.8 9961034
09:00+9wnw111575100 0.5 9981126
12:00+10nw111572100 0.7 9991697
15:00+9nw11137054 0.1 10001310
18:00+6n91284100 1.1 1003927
21:00+6nnw1012715 0.1 1006857
2 december, thu
thu200:00+5nnw911785 0.1 1007644
03:00+4nnw912762 0.0 1008508
06:00+5nw7106418 0.0 1008505
09:00+5nw111383100 0.3 10081038
12:00+4nnw1114735 0.4 10091028
15:00+5nnw1114685 0.0 1011951
18:00+5nnw1013675 0.0 1013777
21:00+5nnw7862100 0.0 1013427
3 december, fri
fri300:00+6w6760100 0.0 1012637
03:00+8sw121368100 0.0 10081487
06:00+8sw131588100 1.9 10041170
09:00+8ssw131694100 1.9 10001016
12:00+11wnw10138592 2.7 997777
15:00+10wnw101373100 0.2 9961203
18:00+8wnw121580100 0.9 9961203
21:00+7nw121684100 1.3 9981344